[[{"header":{"parameterUnit":"m.s-1","parameterCategory":1,"la1":30.2991,"la2":30.254,"lo1":-89.0895,"lo2":-89.0444,"dy":0.0017,"dx":0.0017,"nx":28,"ny":28,"refTime":"2025-06-03T03:00:00:Z","depth":0,"parameterNumber":2,"parameterNumberName":"U-component_of_WINDS"},"data":[0,0,0,0,0,0,0,0,0,0,0,0,0,0,0,0,0,0,0,0,0,0,0,0,0,0,0,0,0,0,0,0,0,0,0,0,0,0,0,0,0,0,0,0,0,0,0,0,0,0,0,0,0,0,0,0,0,0,-5.8898,-5.8897,0,-5.8867,-5.8867,-5.8866,-5.8722,-5.8719,-5.8715,-5.8712,-5.8682,-5.8684,-5.8686,0,0,0,0,0,0,0,0,0,0,0,0,0,-5.8834,-5.8836,-5.8898,-5.8897,-5.8897,-5.8867,-5.8867,-5.8866,-5.8723,-5.8718,-5.8714,-5.871,-5.8681,-5.8684,-5.8687,0,0,0,0,0,0,0,0,0,0,0,0,0,-5.8838,-5.8836,-5.8898,-5.8822,-5.8814,-5.8867,-5.8866,-5.8866,-5.8723,-5.8718,-5.8713,-5.8708,-5.868,-5.8683,-5.8687,-5.8811,0,0,-5.8698,-5.8699,0,0,0,0,0,0,0,0,-5.8838,-5.8841,-5.8833,-5.8827,-5.8819,-5.8793,-5.8833,-5.8848,-5.8725,-5.8758,-5.8712,-5.8706,-5.8723,-5.8723,-5.8728,-5.8809,-5.8808,-5.8698,-5.87,-5.8702,-5.8703,0,0,0,0,0,0,0,-5.8838,-5.8841,-5.8885,-5.8833,-5.8825,-5.879,-5.8785,-5.8835,-5.8769,-5.8755,-5.8744,-5.8742,-5.8718,-5.8725,-5.8726,-5.8808,-5.8698,-5.8701,-5.8703,-5.8705,-5.899,-5.8995,0,0,0,0,0,0,-5.8848,-5.8842,-5.8886,-5.8884,-5.8816,-5.8795,-5.8789,-5.8807,-5.8768,-5.8758,-5.8747,-5.8736,-5.8721,-5.8722,-5.8725,-5.8867,-5.8702,-5.8705,-5.8707,-5.8984,-5.8991,-5.8997,0,0,0,0,0,0,-5.8847,-5.8854,-5.8888,-5.886,-5.8862,-5.8801,-5.8822,-5.8809,-5.8815,-5.8762,-5.875,-5.8766,-5.8717,-5.872,-5.879,-5.8864,-5.8707,-5.871,-5.8978,-5.8986,-5.8994,-5.9154,0,0,0,0,0,0,-5.8846,-5.8854,-5.89,-5.8862,-5.8864,-5.8954,-5.8826,-5.8812,-5.8822,-5.8807,-5.8777,-5.8767,-5.8714,-5.8786,-5.8794,-5.8866,-5.8713,-5.8971,-5.8982,-5.8991,-5.9141,-5.9166,-5.9187,0,0,0,0,0,-5.8844,-5.8946,-5.8903,-5.8909,-5.892,-5.8958,-5.8959,-5.8895,-5.8828,-5.8874,-5.884,-5.8768,-5.8855,-5.8795,-5.8802,-5.8877,-5.8966,-5.8979,-5.8991,-5.9131,-5.9161,-5.9187,0,0,0,0,0,0,-5.8994,-5.894,-5.8891,-5.8984,-5.8977,-5.8934,-5.8989,-5.8929,-5.8941,-5.8927,-5.8847,-5.8842,-5.8925,-5.8908,-5.8841,-5.8995,-5.8898,-5.8913,-5.9003,-5.9031,-5.9054,-5.9055,-5.8716,0,0,0,0,0,-5.9038,-5.9073,-5.9024,-5.911,-5.9109,-5.9051,-5.9065,-5.9016,-5.9006,-5.9002,-5.8973,-5.8967,-5.8992,-5.9011,-5.9031,-5.9139,-5.913,-5.9194,-5.9217,-5.9236,-5.9249,-5.9306,-5.9333,-5.9037,-5.9037,-5.9037,0,0,-5.9128,-5.9103,-5.913,-5.914,-5.9128,-5.9167,-5.9049,-5.9095,-5.9123,-5.9009,-5.9074,-5.9054,-5.904,-5.9131,-5.9169,-5.9119,-5.933,-5.9252,-5.9268,-5.927,-5.9321,-5.9349,-5.9374,-5.9046,-5.9044,-5.9043,0,0,-5.9312,-5.9297,-5.9368,-5.9359,-5.9344,-5.9304,-5.9322,-5.9289,-5.927,-5.9335,-5.925,-5.9283,-5.9329,-5.9323,-5.9327,-5.9512,-5.9446,-5.9521,-5.9641,-5.9697,-5.972,-5.974,-5.9806,-5.9831,-5.9535,-5.9535,-5.9535,0,-5.9427,-5.9481,-5.9412,-5.9463,-5.947,-5.937,-5.9441,-5.9436,-5.9429,-5.9437,-5.9381,-5.9437,-5.9422,-5.9509,-5.9555,-5.9561,-5.9578,-5.9523,-5.9722,-5.9742,-5.976,-5.9822,-5.9847,-5.9544,-5.9543,-5.9542,-5.9541,0,-5.9623,-5.9662,-5.9721,-5.9717,-5.9731,-5.9792,-5.9732,-5.9755,-5.9706,-5.9673,-5.9741,-5.9719,-5.9733,-5.9751,-5.9703,-5.9832,-5.9802,-5.9736,-5.9637,-5.9798,-5.9855,-5.9878,-5.9557,-5.9554,-5.9551,-5.9549,0,0,-5.9898,-5.9856,-5.9879,-5.9876,-5.9853,-5.9882,-5.994,-5.9954,-5.9975,-5.9975,-6.0021,-6.0063,-6.0002,-6.0006,-5.9958,-6.0007,-6.0155,-5.9934,-5.9933,-5.9976,-6.0297,-6.0346,-6.0375,-6.0112,-6.0117,-6.012,-6.0297,0,-6.0074,-6.0169,-6.0109,-6.0214,-6.025,-6.0156,-6.0206,-6.0198,-6.017,-6.0197,-6.0165,-6.0196,-6.0113,-6.0115,-6.016,-6.0128,-6.0219,-6.0114,-6.0155,-6.0157,-6.016,-6.0404,-6.0456,-6.0625,-6.0319,-6.0323,-6.0326,0,-6.0291,-6.03,-6.0409,-6.038,-6.0393,-6.0439,-6.0448,-6.0475,-6.0464,-6.044,-6.0446,-6.0386,-6.0441,-6.0345,-6.042,-6.0351,-6.0364,-6.0352,-6.0357,-6.0357,-6.0251,-6.0411,-6.0677,-6.0702,-6.036,-6.0357,-6.0355,0,-6.0481,-6.0521,-6.0591,-6.0591,-6.0559,-6.0594,-6.0582,-6.0567,-6.058,-6.0588,-6.0596,-6.0612,-6.062,-6.0633,-6.0579,-6.0514,-6.0662,-6.0561,-6.0644,-6.0645,-6.0678,-6.0676,-6.0949,-6.0689,-6.0688,-6.0688,-6.0687,0,-6.0683,-6.0753,-6.0676,-6.0719,-6.0795,-6.0726,-6.0804,-6.0782,-6.077,-6.0807,-6.0728,-6.0765,-6.0692,-6.0722,-6.068,-6.0749,-6.0754,-6.0736,-6.0724,-6.0742,-6.0745,-6.0749,-6.0736,-6.0694,-6.0693,-6.0692,-6.0691,0,-6.0907,-6.0858,-6.0928,-6.0893,-6.0886,-6.0943,-6.0913,-6.0952,-6.0919,-6.0968,-6.0975,-6.0924,-6.0955,-6.0903,-6.0928,-6.09,-6.0996,-6.0967,-6.1,-6.0991,-6.1076,-6.1069,-6.136,-6.1395,-6.1114,-6.1116,-6.1119,0,-6.1039,-6.109,-6.1061,-6.1081,-6.1074,-6.1106,-6.1119,-6.1055,-6.1072,-6.1065,-6.1105,-6.113,-6.1146,-6.1202,-6.1167,-6.1186,-6.1156,-6.1257,-6.1158,-6.1176,-6.1157,-6.1154,-6.1159,-6.1277,-6.128,-6.1283,-6.1285,0,-6.1278,-6.1251,-6.1273,-6.1287,-6.1305,-6.1313,-6.1316,-6.1337,-6.1268,-6.1292,-6.1323,-6.1336,-6.1363,-6.1389,-6.14,-6.1388,-6.1326,-6.1317,-6.1337,-6.1356,-6.1373,-6.1364,-6.1054,-6.131,-6.1308,-6.1306,-6.1304,-6.1303,-6.1458,-6.15,-6.1487,-6.1514,-6.1509,-6.1514,-6.1549,-6.1521,-6.1546,-6.1562,-6.1523,-6.1564,-6.1554,-6.1562,-6.1558,-6.1589,-6.1545,-6.1574,-6.1581,-6.1589,-6.1602,-6.1369,-6.1591,-6.1591,-6.159,-6.1589,-6.1589,0,-6.1692,-6.1679,-6.1706,-6.1712,-6.1734,-6.1674,-6.1674,-6.1696,-6.1734,-6.1729,-6.1748,-6.1785,-6.181,-6.1778,-6.1798,-6.183,-6.1802,-6.1837,-6.1833,-6.1832,-6.1641,-6.1622,-6.1859,-6.1859,-6.1859,-6.1859,-6.1859,-6.1859,-6.1816,-6.1884,-6.1857,-6.1922,-6.1909,-6.1948,-6.1954,-6.1958,-6.1954,-6.1999,-6.202,-6.1999,-6.1984,-6.2002,-6.2023,-6.2013,-6.2024,-6.207,-6.205,-6.1872,-6.1845,-6.182,-6.1801,-6.2073,-6.2073,-6.2237,-6.2239,-6.224]},{"header":{"parameterUnit":"m.s-1","parameterCategory":1,"la1":30.2991,"la2":30.254,"lo1":-89.0895,"lo2":-89.0444,"dy":0.0017,"dx":0.0017,"nx":28,"ny":28,"refTime":"2025-06-03T03:00:00:Z","depth":0,"parameterNumber":3,"parameterNumberName":"V-component_of_WINDS"},"data":[0,0,0,0,0,0,0,0,0,0,0,0,0,0,0,0,0,0,0,0,0,0,0,0,0,0,0,0,0,0,0,0,0,0,0,0,0,0,0,0,0,0,0,0,0,0,0,0,0,0,0,0,0,0,0,0,0,0,-0.0137,-0.0137,0,-0.0134,-0.0134,-0.0134,-0.0109,-0.0108,-0.0108,-0.0107,-0.0107,-0.0107,-0.0108,0,0,0,0,0,0,0,0,0,0,0,0,0,-0.0119,-0.012,-0.0137,-0.0137,-0.0136,-0.0134,-0.0134,-0.0134,-0.0109,-0.0108,-0.0107,-0.0107,-0.0106,-0.0107,-0.0108,0,0,0,0,0,0,0,0,0,0,0,0,0,-0.0123,-0.012,-0.0137,-0.0123,-0.0122,-0.0134,-0.0134,-0.0134,-0.0109,-0.0108,-0.0107,-0.0106,-0.0106,-0.0107,-0.0108,-0.0133,0,0,-0.0111,-0.0111,0,0,0,0,0,0,0,0,-0.0123,-0.0124,-0.0125,-0.0124,-0.0123,-0.0121,-0.0128,-0.0134,-0.0109,-0.0114,-0.0107,-0.0106,-0.0112,-0.0113,-0.0114,-0.0133,-0.0133,-0.0111,-0.0111,-0.0112,-0.0112,0,0,0,0,0,0,0,-0.0123,-0.0124,-0.0136,-0.0126,-0.0124,-0.0118,-0.0117,-0.0129,-0.0119,-0.0114,-0.0112,-0.0112,-0.0111,-0.0114,-0.0114,-0.0133,-0.0111,-0.0111,-0.0112,-0.0112,-0.017,-0.0171,0,0,0,0,0,0,-0.0124,-0.0124,-0.0136,-0.0136,-0.0121,-0.0119,-0.0118,-0.0123,-0.0119,-0.0117,-0.0113,-0.0111,-0.0113,-0.0113,-0.0114,-0.0142,-0.0112,-0.0112,-0.0113,-0.0169,-0.0171,-0.0172,0,0,0,0,0,0,-0.0124,-0.0125,-0.0136,-0.0129,-0.013,-0.012,-0.0125,-0.0123,-0.0125,-0.0118,-0.0116,-0.0117,-0.0112,-0.0113,-0.0128,-0.0142,-0.0113,-0.0114,-0.0168,-0.017,-0.0171,-0.0199,0,0,0,0,0,0,-0.0123,-0.0125,-0.0135,-0.0129,-0.013,-0.015,-0.0126,-0.0124,-0.0127,-0.0124,-0.0121,-0.012,-0.0111,-0.0127,-0.0129,-0.0143,-0.0114,-0.0167,-0.0169,-0.0171,-0.0197,-0.0202,-0.0206,0,0,0,0,0,-0.0123,-0.0144,-0.0135,-0.0137,-0.0142,-0.0151,-0.0151,-0.014,-0.0128,-0.0137,-0.0132,-0.012,-0.014,-0.0129,-0.0131,-0.0145,-0.0166,-0.0168,-0.0171,-0.0195,-0.0201,-0.0206,0,0,0,0,0,0,-0.0152,-0.0143,-0.0134,-0.0153,-0.0153,-0.0146,-0.0158,-0.0147,-0.0151,-0.0148,-0.0135,-0.0134,-0.0152,-0.015,-0.0137,-0.0168,-0.0151,-0.0154,-0.0169,-0.0174,-0.0178,-0.0178,-0.0115,0,0,0,0,0,-0.016,-0.0168,-0.0159,-0.0177,-0.0178,-0.0168,-0.0171,-0.0163,-0.0162,-0.0162,-0.0158,-0.0159,-0.0165,-0.0169,-0.0175,-0.0197,-0.0195,-0.0207,-0.0212,-0.0215,-0.0218,-0.0228,-0.0233,-0.0179,-0.0179,-0.0179,0,0,-0.0178,-0.0174,-0.018,-0.0183,-0.0182,-0.019,-0.0168,-0.0178,-0.0184,-0.0164,-0.0177,-0.0175,-0.0174,-0.0192,-0.02,-0.0191,-0.0232,-0.0218,-0.0221,-0.0222,-0.0231,-0.0236,-0.0241,-0.0181,-0.018,-0.018,0,0,-0.0215,-0.0213,-0.0227,-0.0225,-0.0223,-0.0216,-0.022,-0.0215,-0.0212,-0.0225,-0.021,-0.0217,-0.0228,-0.0228,-0.023,-0.0265,-0.0253,-0.0267,-0.0289,-0.0299,-0.0304,-0.0307,-0.0319,-0.0324,-0.0269,-0.0269,-0.027,0,-0.0238,-0.0249,-0.0236,-0.0246,-0.0248,-0.0229,-0.0243,-0.0243,-0.0243,-0.0245,-0.0234,-0.0247,-0.0246,-0.0263,-0.0271,-0.0273,-0.0277,-0.0267,-0.0304,-0.0307,-0.0311,-0.0322,-0.0327,-0.0271,-0.0271,-0.0271,-0.0271,0,-0.0276,-0.0284,-0.0296,-0.0295,-0.0298,-0.0311,-0.03,-0.0304,-0.0295,-0.0289,-0.0303,-0.03,-0.0304,-0.0307,-0.0299,-0.0324,-0.0318,-0.0306,-0.0288,-0.0318,-0.0328,-0.0332,-0.0273,-0.0273,-0.0272,-0.0272,0,0,-0.0332,-0.0323,-0.0328,-0.0326,-0.0322,-0.0328,-0.0339,-0.0342,-0.0346,-0.0347,-0.0356,-0.0365,-0.0353,-0.0355,-0.0346,-0.0356,-0.0383,-0.0342,-0.0342,-0.035,-0.0409,-0.0418,-0.0423,-0.0375,-0.0376,-0.0376,-0.0409,0,-0.0367,-0.0385,-0.0373,-0.0393,-0.04,-0.0381,-0.0391,-0.0389,-0.0384,-0.0389,-0.0383,-0.039,-0.0374,-0.0375,-0.0383,-0.0378,-0.0394,-0.0375,-0.0383,-0.0384,-0.0384,-0.0428,-0.0438,-0.0469,-0.0413,-0.0413,-0.0414,0,-0.041,-0.0411,-0.0432,-0.0425,-0.0427,-0.0436,-0.0437,-0.0443,-0.044,-0.0435,-0.0437,-0.0425,-0.0436,-0.0418,-0.0432,-0.0419,-0.0421,-0.0419,-0.042,-0.042,-0.0401,-0.043,-0.0479,-0.0483,-0.042,-0.042,-0.0419,0,-0.0448,-0.0455,-0.0468,-0.0468,-0.046,-0.0466,-0.0464,-0.046,-0.0462,-0.0464,-0.0465,-0.0468,-0.0469,-0.0472,-0.0461,-0.0449,-0.0476,-0.0458,-0.0473,-0.0473,-0.048,-0.0479,-0.0529,-0.0481,-0.0481,-0.0481,-0.0481,0,-0.0489,-0.0502,-0.0484,-0.0492,-0.0506,-0.0492,-0.0507,-0.0502,-0.0499,-0.0505,-0.049,-0.0497,-0.0483,-0.0488,-0.048,-0.0492,-0.0493,-0.049,-0.0487,-0.0491,-0.0491,-0.0493,-0.049,-0.0482,-0.0482,-0.0482,-0.0482,0,-0.0534,-0.0523,-0.0535,-0.0526,-0.0524,-0.0535,-0.0528,-0.0535,-0.0528,-0.0536,-0.0537,-0.0527,-0.0532,-0.0521,-0.0526,-0.052,-0.0538,-0.0532,-0.0538,-0.0536,-0.0552,-0.055,-0.0604,-0.061,-0.0559,-0.0559,-0.056,0,-0.056,-0.0569,-0.0561,-0.0564,-0.0562,-0.0567,-0.0569,-0.0555,-0.0557,-0.0554,-0.0562,-0.0565,-0.0568,-0.0577,-0.057,-0.0572,-0.0567,-0.0585,-0.0567,-0.057,-0.0567,-0.0566,-0.0567,-0.0589,-0.059,-0.059,-0.0591,0,-0.0608,-0.0601,-0.0604,-0.0605,-0.0607,-0.0607,-0.0606,-0.0609,-0.0595,-0.0598,-0.0603,-0.0604,-0.0608,-0.0612,-0.0613,-0.061,-0.0598,-0.0596,-0.06,-0.0604,-0.0607,-0.0605,-0.0548,-0.0595,-0.0595,-0.0595,-0.0594,-0.0594,-0.0644,-0.0651,-0.0646,-0.0649,-0.0646,-0.0646,-0.0651,-0.0644,-0.0648,-0.0649,-0.0641,-0.0647,-0.0643,-0.0643,-0.0642,-0.0646,-0.0638,-0.0643,-0.0645,-0.0646,-0.0648,-0.0606,-0.0647,-0.0646,-0.0646,-0.0646,-0.0646,0,-0.069,-0.0685,-0.0689,-0.0687,-0.0689,-0.0677,-0.0675,-0.0678,-0.0683,-0.0681,-0.0683,-0.0688,-0.0691,-0.0683,-0.0685,-0.0691,-0.0685,-0.0692,-0.0691,-0.0691,-0.0656,-0.0652,-0.0696,-0.0696,-0.0696,-0.0696,-0.0696,-0.0696,-0.0714,-0.0725,-0.0718,-0.0728,-0.0723,-0.0729,-0.0728,-0.0727,-0.0725,-0.0731,-0.0733,-0.0728,-0.0723,-0.0724,-0.0727,-0.0724,-0.0726,-0.0734,-0.073,-0.0698,-0.0693,-0.0689,-0.0685,-0.0735,-0.0735,-0.0764,-0.0765,-0.0765]}]]